Tracking 19476 objects as of 17-Jan-2019
HD Live streaming from Space Station
objects crossing your sky now

OPS 9322 (IDSCS 9)

Track OPS 9322 (IDSCS 9) now!
OPS 9322 (IDSCS 9) is classified as:


NORAD ID: 2649
Int'l Code: 1967-003B
Perigee: 33,555.7 km
Apogee: 33,820.2 km
Inclination: 3.5 °
Period: 1,329.9 minutes
Semi major axis: 40058 km
RCS: 0.1995 m2 (medium)
Launch date: January 18, 1967
Source: United States (US)
Launch site: AIR FORCE EASTERN TEST RANGE (AFETR)
aabbcc
Your satellite tracking list
Your tracking list is empty




NASA's NSSDC Master Catalog

Two Line Element Set (TLE):
1  2649U 67003B   19015.89515753 -.00000059  00000-0  00000+0 0  9990
2  2649   3.4538  57.7170 0033010  47.1102 302.0754  1.08281385110093
Source of the keplerian elements: AFSPC